Flag for Afghanistan Weather past 2 weeks in Herat, Afghanistan

Now
81 °F

Sunny.


Feels Like: 79 °F
Forecast: 65 / 90 °F
Wind: 7 mph from North

Location: Herat Airport

Current Time: Jul 31, 2014 at 8:50:56 AM

Latest Report: Jul 31, 2014 at 8:24 AM


Visibility: 10 mi

Pressure: 29.89 "Hg

Humidity: 15%

Dew point: 28 °F

Location of HeratLocation

Historic Weather in Herat — Graph

°F

Herat temperature yesterday

Maximum temperature yesterday: 93 °F (at 1:25 PM)
Minimum temperature yesterday: 72 °F (at 4:24 AM)
Average temperature yesterday: 82 °F

Past Weeks' High & Low Weather Summary

 TemperatureHumidityPressure
High109 °F (Jul 22, 1:25 PM)24% (Jul 24, 5:25 AM)29.89 "Hg (Jul 24, 5:25 AM)
Low64 °F (Jul 20, 6:24 AM)5% (Jul 19, 3:25 PM)29.59 "Hg (Jul 22, 4:24 PM)
Average87 °F12%29.77 "Hg
* Reported Jul 16 7:24 AM — Jul 31 7:25 AM, Herat, Weather by CustomWeather, © 2014

Note: Actual official high and low records may vary slightly from our data, if they occured in-between our weather recording intervals... More about our weather records

Advertising

Herat weather history for previous 24 hours

 ConditionsComfort  
Time TempWeatherWind HumidityBarometerVisibility
7:25 AM
Jul 31
77 °FSunny.7 mph14%29.89 "Hg10 mi
6:24 AM72 °FSunny.7 mph19%29.86 "Hg10 mi
5:25 AM72 °FClear.13 mph17%29.86 "Hg10 mi
4:24 AM73 °FPassing clouds.15 mph16%29.86 "HgN/A
3:24 AM72 °FClear.8 mph16%29.86 "Hg10 mi
2:25 AM73 °FPassing clouds.13 mph14%29.86 "HgN/A
1:25 AM75 °FPassing clouds.12 mph13%29.86 "HgN/A
12:24 AM75 °FClear.12 mph13%29.89 "Hg10 mi
11:25 PM
Jul 30
77 °FPassing clouds.12 mph11%29.89 "HgN/A
10:24 PM79 °FClear.12 mph11%29.86 "Hg10 mi
9:24 PM81 °FClear.13 mph9%29.86 "Hg10 mi
8:25 PM82 °FClear.12 mph9%29.83 "Hg10 mi
7:24 PM84 °FSunny.17 mph9%29.80 "Hg10 mi
6:24 PM86 °FSunny.14 mph9%29.77 "Hg10 mi
5:25 PM90 °FSunny.16 mph9%29.77 "Hg10 mi
4:25 PM91 °FSunny.15 mph8%29.77 "Hg10 mi
3:24 PM93 °FSunny.15 mph8%29.77 "Hg10 mi
2:25 PM93 °FClear.18 mph7%29.77 "Hg5 mi
1:25 PM93 °FClear.18 mph8%29.77 "Hg5 mi
12:25 PM91 °FClear.16 mph8%29.80 "Hg5 mi
11:25 AM90 °FClear.18 mph9%29.80 "Hg5 mi
10:25 AM88 °FClear.15 mph9%29.80 "Hg5 mi
9:24 AM86 °FClear.13 mph10%29.80 "Hg6 mi
8:24 AM82 °FClear.8 mph12%29.80 "Hg6 mi
Weather by CustomWeather, © 2014

See weather overviewHow to use our weather pages